Location: Mexico
(19.4000°N, 99.1500°W)
Time: 16:55:29
(UTC-06:00)

ISS - Pass Details

Date: 16 July 2019
Orbit: 409 x 418 km, 51.6° (Epoch: 23 July)

Event Time Altitude Azimuth Distance (km) Brightness Sun altitude
Rises 21:07:59 0° 253° (WSW) 2,344 0.6 -23.6°
Reaches altitude 10° 21:10:46 10° 279° (W) 1,481 -0.1 -24.1°
Maximum altitude 21:12:42 15° 314° (NW) 1,235 -0.5 -24.5°
Drops below altitude 10° 21:14:39 10° 350° (N) 1,480 -0.4 -24.9°
Sets 21:17:27 0° 16° (NNE) 2,341 0.3 -25.4°
